Home   Weather   34°51'N, 82°19'W   Past weeks
Flag for USA

Past Weather in 34°51'N, 82°19'W, USA — Yesterday and Last 2 Weeks

Now
83 °F

Clear.


Feels Like: 83 °F
Forecast: 84 / 69 °F
Wind: 5 mph from Southwest

Location: Greenville Downtown Airport

Current Time: May 21, 2019 at 9:42:21 pm

Latest Report: May 21, 2019 at 8:53 pm


Visibility: 10 mi

Pressure: 29.95 "Hg

Humidity: 43%

Dew Point: 58 °F

Location of 34°51'N, 82°19'WLocation

Past Weather in 34°51'N, 82°19'W — Graph

°F

34°51'N, 82°19'W Temperature Yesterday

Maximum temperature yesterday: 89 °F (at 4:53 pm)
Minimum temperature yesterday: 70 °F (at 6:07 am)
Average temperature yesterday: 78 °F

High & Low Weather Summary for the Past Weeks

 TemperatureHumidityPressure
High90 °F (May 18, 2:53 pm)100% (May 10, 8:21 am)30.22 "Hg (May 10, 8:21 am)
Low53 °F (May 14, 4:53 am)25% (May 13, 4:53 pm)29.70 "Hg (May 12, 6:53 pm)
Average73 °F68%29.99 "Hg
* Reported May 6 7:53 pm — May 21 7:53 pm, 34°51'N, 82°19'W. Weather by CustomWeather, © 2019

Note: Actual official high and low records may vary slightly from our data, if they occured in-between our weather recording intervals... More about our weather records

Advertising

34°51'N, 82°19'W Weather History for the Previous 24 Hours

Scroll right to see more
 ConditionsComfort  
Time TempWeatherWind HumidityBarometerVisibility
7:53 pm
Tue, May 21
86 °FSunny.7 mph36%29.94 "Hg10 mi
6:53 pm87 °FSunny.8 mph37%29.93 "Hg10 mi
5:53 pm88 °FSunny.5 mph35%29.93 "Hg10 mi
4:53 pm89 °FSunny.6 mph32%29.93 "Hg10 mi
3:53 pm88 °FSunny.5 mph34%29.93 "Hg9 mi
2:53 pm88 °FSunny.No wind33%29.95 "Hg10 mi
1:53 pm87 °FSunny.5 mph33%29.96 "Hg10 mi
12:53 pm85 °FSunny.5 mph35%29.98 "Hg10 mi
11:53 am84 °FSunny.No wind35%29.99 "Hg10 mi
10:53 am82 °FSunny.5 mph38%30.00 "Hg10 mi
9:53 am80 °FSunny.8 mph42%30.00 "Hg10 mi
8:53 am76 °FSunny.7 mph52%29.99 "Hg10 mi
7:53 am72 °FSunny.5 mph59%29.98 "Hg10 mi
6:53 am68 °FSunny.3 mph63%29.96 "Hg10 mi
5:53 am69 °FClear.No wind63%29.94 "Hg10 mi
4:53 am68 °FClear.No wind68%29.93 "Hg10 mi
3:53 am69 °FClear.No wind68%29.92 "Hg10 mi
2:53 am70 °FClear.6 mph66%29.93 "Hg10 mi
1:53 am72 °FClear.6 mph64%29.93 "Hg10 mi
12:53 am73 °FClear.7 mph62%29.93 "Hg10 mi
11:53 pm
Mon, May 20
74 °FClear.6 mph67%29.94 "Hg10 mi
10:53 pm75 °FClear.6 mph69%29.94 "Hg10 mi
9:53 pm80 °FClear.No wind51%29.93 "Hg10 mi
Weather by CustomWeather, © 2019

See weather overview